Weather History for KORC - October, 2011

Change the Weather History Date:

Sunday, October 23, 2011

  Actual Average Record
Temperature  
Mean Temperature 58 °F -  
Max Temperature 73 °F 57 °F 73 °F (2011)
Min Temperature 42 °F 38 °F 19 °F (2006)
Degree Days  
Heating Degree Days 8    
Growing Degree Days 8 (Base 50)    
Moisture  
Dew Point 35 °F    
Average Humidity 54    
Maximum Humidity 87    
Minimum Humidity 16    
Precipitation  
Precipitation 0.00 in - - ()
Sea Level Pressure  
Sea Level Pressure 29.91 in    
Wind  
Wind Speed 8 mph (WSW)    
Max Wind Speed 24 mph    
Max Gust Speed 29 mph    
Visibility 10 miles    
Events      
Averages and records for this station are not official NWS values.
T = Trace of Precipitation, MM = Missing Value Source: NWS Daily Summary

Daily Weather History Graph

Daily Weather History Graph

Search for Another Location

Airport or City:

Trip Planner

Search our weather history database for the weather conditions in past years. The results will help you decide how hot, cold, wet, or windy it might be!

Date:

Astronomy

Oct. 23, 2011 Rise Set
Actual Time 7:47 AM CDT 6:29 PM CDT
Civil Twilight 7:18 AM CDT 6:58 PM CDT
Nautical Twilight 6:45 AM CDT 7:31 PM CDT
Astronomical Twilight 6:12 AM CDT 8:04 PM CDT
Moon 3:50 AM CDT (10/23) 4:24 PM CDT (10/23)
Length of Visible Light 11h 40m
Length of Day
10h 42m
Waning Crescent, 14% of the Moon is Illuminated
Oct 23
Waning Crescent
Oct 26
New
Nov 2
First Quarter
Nov 10
Full
Nov 18
Last Quarter

Hourly Weather History & Observations

Time (CDT) Temp. Windchill Dew Point Humidity Pressure Visibility Wind Dir Wind Speed Gust Speed Precip Events Conditions
12:15 AM 44.6 °F 42.2 °F 33.8 °F 66% 29.99 in 10.0 mi SSW 4.6 mph - N/A   Clear
12:35 AM 44.6 °F 40.7 °F 33.8 °F 66% 29.98 in 10.0 mi SSW 6.9 mph - N/A   Clear
12:55 AM 42.8 °F 38.0 °F 35.6 °F 76% 29.97 in 10.0 mi SSW 8.1 mph - N/A   Clear
1:15 AM 44.6 °F 40.2 °F 37.4 °F 76% 29.97 in 10.0 mi South 8.1 mph - N/A   Scattered Clouds
1:55 AM 44.6 °F 41.4 °F 39.2 °F 81% 29.97 in 10.0 mi SW 5.8 mph - N/A   Scattered Clouds
2:15 AM 44.6 °F 38.8 °F 39.2 °F 81% 29.94 in 10.0 mi South 11.5 mph - N/A   Light Drizzle
2:35 AM 46.4 °F 41.9 °F 39.2 °F 76% 29.95 in 10.0 mi SSW 9.2 mph - N/A   Overcast
2:55 AM 44.6 °F 41.4 °F 39.2 °F 81% 29.95 in 10.0 mi South 5.8 mph - N/A   Mostly Cloudy
3:15 AM 46.4 °F 42.9 °F 39.2 °F 76% 29.95 in 10.0 mi SSW 6.9 mph - N/A   Mostly Cloudy
3:35 AM 46.4 °F 45.2 °F 39.2 °F 76% 29.95 in 10.0 mi SSW 3.5 mph - N/A   Scattered Clouds
3:55 AM 46.4 °F 44.3 °F 41.0 °F 81% 29.94 in 10.0 mi South 4.6 mph - N/A   Scattered Clouds
4:15 AM 44.6 °F 41.4 °F 39.2 °F 81% 29.93 in 10.0 mi South 5.8 mph - N/A   Scattered Clouds
4:35 AM 44.6 °F 43.1 °F 39.2 °F 81% 29.93 in 10.0 mi South 3.5 mph - N/A   Scattered Clouds
4:55 AM 44.6 °F 41.4 °F 39.2 °F 81% 29.92 in 10.0 mi South 5.8 mph - N/A   Clear
5:15 AM 44.6 °F 41.4 °F 39.2 °F 81% 29.91 in 10.0 mi South 5.8 mph - N/A   Clear
5:35 AM 44.6 °F 40.7 °F 39.2 °F 81% 29.91 in 7.0 mi South 6.9 mph - N/A   Clear
5:55 AM 44.6 °F 41.4 °F 39.2 °F 81% 29.91 in 7.0 mi South 5.8 mph - N/A   Clear
6:15 AM 44.6 °F 42.2 °F 39.2 °F 81% 29.92 in 7.0 mi SSW 4.6 mph - N/A   Clear
6:35 AM 44.6 °F 40.7 °F 39.2 °F 81% 29.91 in 10.0 mi SSW 6.9 mph - N/A   Clear
6:55 AM 44.6 °F 40.2 °F 39.2 °F 81% 29.91 in 7.0 mi SSW 8.1 mph - N/A   Clear
7:15 AM 42.8 °F 38.0 °F 39.2 °F 87% 29.91 in 7.0 mi SSW 8.1 mph - N/A   Clear
7:35 AM 42.8 °F 41.1 °F 37.4 °F 81% 29.92 in 7.0 mi SW 3.5 mph - N/A   Clear
7:55 AM 42.8 °F 39.3 °F 37.4 °F 81% 29.91 in 7.0 mi SSW 5.8 mph - N/A   Clear
8:15 AM 42.8 °F 39.3 °F 37.4 °F 81% 29.91 in 5.0 mi SW 5.8 mph - N/A   Clear
8:35 AM 44.6 °F 41.4 °F 39.2 °F 81% 29.91 in 7.0 mi SSW 5.8 mph - N/A   Scattered Clouds
8:55 AM 46.4 °F 44.3 °F 41.0 °F 81% 29.91 in 7.0 mi SSW 4.6 mph - N/A   Scattered Clouds
9:15 AM 46.4 °F 43.5 °F 42.8 °F 87% 29.92 in 10.0 mi SW 5.8 mph - N/A   Scattered Clouds
9:55 AM 51.8 °F - 42.8 °F 71% 29.92 in 10.0 mi WSW 8.1 mph - N/A   Clear
10:15 AM 51.8 °F - 42.8 °F 71% 29.91 in 10.0 mi SW 6.9 mph - N/A   Scattered Clouds
10:35 AM 53.6 °F - 42.8 °F 67% 29.91 in 10.0 mi SW 5.8 mph - N/A   Scattered Clouds
10:55 AM 55.4 °F - 44.6 °F 67% 29.90 in 10.0 mi WSW 8.1 mph - N/A   Clear
11:35 AM 60.8 °F - 41.0 °F 48% 29.89 in 10.0 mi West 5.8 mph - N/A   Clear
11:55 AM 62.6 °F - 37.4 °F 39% 29.89 in 10.0 mi West 3.5 mph - N/A   Clear
12:15 PM 64.4 °F - 35.6 °F 34% 29.88 in 10.0 mi West 4.6 mph - N/A   Clear
12:35 PM 68.0 °F - 32.0 °F 26% 29.88 in 10.0 mi WNW 5.8 mph - N/A   Clear
12:55 PM 68.0 °F - 32.0 °F 26% 29.87 in 10.0 mi WSW 5.8 mph - N/A   Clear
1:15 PM 71.6 °F - 26.6 °F 19% 29.87 in 10.0 mi West 9.2 mph - N/A   Clear
1:35 PM 71.6 °F - 24.8 °F 17% 29.86 in 10.0 mi West 8.1 mph - N/A   Clear
1:55 PM 71.6 °F - 26.6 °F 19% 29.85 in 10.0 mi West 17.3 mph - N/A   Clear
2:15 PM 71.6 °F - 28.4 °F 20% 29.85 in 10.0 mi West 13.8 mph - N/A   Clear
2:35 PM 73.4 °F - 26.6 °F 18% 29.84 in 10.0 mi West 17.3 mph 27.6 mph N/A   Clear
2:55 PM 73.4 °F - 26.6 °F 18% 29.84 in 10.0 mi West 20.7 mph 26.5 mph N/A   Clear
3:15 PM 71.6 °F - 26.6 °F 19% 29.84 in 10.0 mi West 20.7 mph 25.3 mph N/A   Clear
3:35 PM 71.6 °F - 26.6 °F 19% 29.84 in 10.0 mi WNW 18.4 mph 24.2 mph N/A   Clear
3:55 PM 71.6 °F - 24.8 °F 17% 29.84 in 10.0 mi NW 24.2 mph 28.8 mph N/A   Clear
4:15 PM 71.6 °F - 26.6 °F 19% 29.85 in 10.0 mi WNW 18.4 mph - N/A   Clear
4:35 PM 71.6 °F - 26.6 °F 19% 29.85 in 10.0 mi WNW 19.6 mph 24.2 mph N/A   Scattered Clouds
4:55 PM 71.6 °F - 24.8 °F 17% 29.86 in 10.0 mi NW 18.4 mph 27.6 mph N/A   Scattered Clouds
5:15 PM 69.8 °F - 21.2 °F 16% 29.87 in 10.0 mi NW 17.3 mph 24.2 mph N/A   Clear
5:35 PM 69.8 °F - 24.8 °F 18% 29.88 in 10.0 mi NW 16.1 mph 20.7 mph N/A   Clear
5:55 PM 66.2 °F - 28.4 °F 24% 29.89 in 10.0 mi North 13.8 mph - N/A   Clear
6:15 PM 64.4 °F - 32.0 °F 30% 29.90 in 10.0 mi NNW 10.4 mph - N/A   Clear
6:35 PM 62.6 °F - 33.8 °F 34% 29.92 in 10.0 mi NNW 9.2 mph - N/A   Clear
6:55 PM 62.6 °F - 33.8 °F 34% 29.93 in 10.0 mi NNW 8.1 mph - N/A   Clear
7:35 PM 59.0 °F - 33.8 °F 39% 29.95 in 10.0 mi North 5.8 mph - N/A   Clear
7:55 PM 57.2 °F - 33.8 °F 41% 29.96 in 10.0 mi North 4.6 mph - N/A   Clear
8:15 PM 57.2 °F - 33.8 °F 41% 29.96 in 10.0 mi North 5.8 mph - N/A   Clear
8:35 PM 57.2 °F - 33.8 °F 41% 29.97 in 10.0 mi North 4.6 mph - N/A   Clear
8:55 PM 55.4 °F - 33.8 °F 44% 29.97 in 10.0 mi NNW 3.5 mph - N/A   Clear
9:15 PM 53.6 °F - 33.8 °F 47% 29.98 in 10.0 mi NNW 3.5 mph - N/A   Clear
9:35 PM 53.6 °F - 33.8 °F 47% 29.99 in 10.0 mi North 4.6 mph - N/A   Clear
9:55 PM 50.0 °F - 33.8 °F 54% 29.99 in 10.0 mi North 3.5 mph - N/A   Clear
10:35 PM 53.6 °F - 33.8 °F 47% 29.98 in 10.0 mi NNE 4.6 mph - N/A   Clear
10:55 PM 53.6 °F - 33.8 °F 47% 29.99 in 10.0 mi NNE 4.6 mph - N/A   Clear
11:15 PM 53.6 °F - 33.8 °F 47% 29.99 in 10.0 mi NNE 5.8 mph - N/A   Clear
11:35 PM 53.6 °F - 33.8 °F 47% 29.99 in 10.0 mi NE 4.6 mph - N/A   Clear
11:55 PM 51.8 °F - 33.8 °F 50% 29.99 in 10.0 mi ENE 3.5 mph - N/A   Clear